2020-061R (46287 NORAD) Tracking and Keplerian Element Data

This shows tracking and keplerian element data for the satellite.

Feedback or suggestion? Click here.




ElementValue
Catalog46287
Name2020-061R
Epoch Orbit319
Epoch Day268.41695929
Epoch Year2020
RAAN341.1518
Inclination97.5177
Eccentricity0.0001283
Argument of Perigee314.3455
Mean Anonmoly45.7669
Mean Motion15.09947412
Decay Rate7.56E-06
L11 46287U 20061R 20268.41695929 .00000756 00000-0 50465-4 0 9991
L22 46287 97.5177 341.1518 0001283 314.3455 45.7669 15.09947412 3199

Live tracking and technical data element details for 2020-061R (NORAD 46287). 2020-061R can be tracked NOW for your location showing map with azimuth and elevation plus other details from your city location.

Track the satellite on the map from your city or location and see movement details for azimuth, elevation, latitude, longitude, range, height, and movement on the map or in text.







IsCatalogInMostPopularTable: catalog: 46287, numindb: 3
Update: records affected: 1



GetName: 46287 2020-061R

Hit Count: updated at: Sat, 26 Sep 2020 13:49:17 GMT